1494561600.56,1694,12.06,72884.8,0.31,-0.45,-0.37,0,*70
1494561601.74,1695,12.06,72880.3,0.31,-0.41,-0.37,0,*75
1494561602.91,1696,12.13,72882.5,0.31,-0.37,-0.41,0,*76
1494561604.09,1697,12.06,72872.8,0.31,-0.41,-0.37,0,*77
1494561605.27,1698,12.06,72882.3,0.31,-0.41,-0.41,0,*79
1494561606.44,1699,12.06,72894.0,0.31,-0.41,-0.41,0,*78
1494561607.61,1700,12.06,72870.0,0.31,-0.45,-0.45,0,*79
1494561608.78,1701,12.06,72872.8,0.31,-0.57,-0.57,0,*78
1494561609.95,1702,12.06,72868.5,0.31,-0.65,-0.45,0,*79
1494561611.11,1703,12.06,72878.0,0.31,-0.57,-0.45,0,*79
1494561612.31,1704,12.06,72876.0,0.29,-0.49,-0.49,0,*74
1494561613.48,1705,12.06,72872.8,0.31,-0.45,-0.45,0,*7C
1494561614.64,1706,12.06,72872.5,0.31,-0.57,-0.53,0,*7B
1494561615.81,1707,12.06,72874.3,0.31,-0.65,-0.53,0,*7B
1494561616.98,1708,12.06,72874.0,0.31,-0.65,-0.45,0,*73
1494561618.15,1709,12.06,72876.0,0.31,-0.57,-0.45,0,*73
1494561619.31,1710,12.06,72878.8,0.31,-0.57,-0.53,0,*7C
1494561620.48,1711,12.13,72882.8,0.31,-0.57,-0.45,0,*7A
1494561621.64,1712,12.06,72880.8,0.31,-0.15,0.09,0,*6A
1494561622.85,1713,12.13,72888.5,0.33,-0.03,0.21,0,*64
1494561624.05,1714,12.06,72880.0,0.33,-0.03,0.17,0,*66
1494561625.23,1715,12.06,72890.0,0.33,-0.07,0.09,0,*5C
1494561626.42,1716,12.06,72892.8,0.33,-0.19,0.05,0,*6C
1494561627.6,1717,12.06,72894.0,0.33,-0.15,-0.03,0,*4A
1494561628.79,1718,12.06,72880.5,0.33,-0.29,-0.11,0,*79
1494561630.01,1719,12.06,72870.3,0.33,-0.37,-0.27,0,*72
1494561631.2,1720,12.06,72874.5,0.33,-0.41,-0.29,0,*77
1494561632.41,1721,12.06,72874.5,0.33,-0.37,-0.27,0,*79
1494561633.6,1722,12.06,72878.8,0.33,-0.41,-0.29,0,*75
1494561634.8,1723,12.06,72886.8,0.35,-0.37,-0.27,0,*7D
1494561635.99,1724,12.06,72882.5,0.33,-0.41,-0.29,0,*73
1494561637.18,1725,12.06,72884.8,0.33,-0.41,-0.37,0,*7D
1494561638.37,1726,12.06,72876.0,0.33,-0.41,-0.29,0,*71
1494561639.58,1727,12.06,72882.8,0.33,-0.33,-0.27,0,*7B
1494561640.75,1728,12.06,72880.5,0.35,-0.33,-0.29,0,*7C
1494561641.94,1729,12.06,72872.0,0.33,-0.37,-0.41,0,*71
1494561643.14,1730,12.06,72872.3,0.33,-0.41,-0.45,0,*7C
1494561644.31,1731,12.06,72878.5,0.35,-0.37,-0.41,0,*7E
1494561645.51,1732,12.06,72874.5,0.33,-0.41,-0.45,0,*7E
1494561646.7,1733,12.06,72862.0,0.33,-0.53,-0.45,0,*7C
1494561647.88,1734,12.06,72862.3,0.35,-0.41,-0.41,0,*7A
1494561649.07,1735,12.06,72864.3,0.33,-0.53,-0.45,0,*7A
1494561650.26,1736,12.06,72862.8,0.33,-0.53,-0.45,0,*79
1494561651.45,1737,12.06,72858.5,0.33,-0.53,-0.57,0,*7B
1494561652.62,1738,12.06,72860.3,0.31,-0.65,-0.53,0,*77
1494561653.78,1739,12.06,72864.3,0.35,-0.61,-0.61,0,*77
1494561654.97,1740,12.06,72870.0,0.33,-0.65,-0.57,0,*7E
1494561656.15,1741,12.06,72868.5,0.33,-0.69,-0.65,0,*72
1494561657.34,1742,12.06,72868.8,0.33,-0.77,-0.69,0,*72
1494561658.53,1743,12.13,72868.8,0.33,-0.65,-0.57,0,*7D
1494561659.73,1744,12.06,72862.0,0.33,-0.57,-0.53,0,*7F
1494561660.91,1745,12.06,72860.5,0.33,-0.65,-0.53,0,*7F
1494561662.08,1746,12.06,72860.3,0.31,-0.65,-0.57,0,*7A
1494561663.25,1747,12.06,72856.3,0.31,-0.57,-0.65,0,*7B
1494561664.44,1748,12.06,72856.0,0.33,-0.57,-0.57,0,*77
1494561665.6,1749,12.06,72858.0,0.31,-0.65,-0.57,0,*75
1494561666.77,1750,12.06,72854.5,0.31,-0.57,-0.57,0,*7C
1494561667.94,1751,12.06,72856.8,0.31,-0.53,-0.45,0,*7A
1494561669.11,1752,12.06,72858.3,0.31,-0.53,-0.53,0,*7E
1494561670.27,1753,12.06,72870.0,0.31,-0.65,-0.65,0,*7F
1494561671.46,1754,12.06,72864.0,0.29,-0.69,-0.61,0,*79
1494561672.62,1755,12.06,72870.3,0.31,-0.65,-0.65,0,*79
1494561673.79,1756,12.13,72878.8,0.31,-0.69,-0.69,0,*7A
1494561674.97,1757,12.06,72870.5,0.29,-0.61,-0.61,0,*72
1494561676.16,1758,12.06,72872.3,0.29,-0.57,-0.61,0,*78
1494561677.35,1759,12.06,72878.0,0.29,-0.49,-0.45,0,*70
1494561678.52,1760,12.06,72888.8,0.31,-0.45,-0.53,0,*78
1494561679.71,1761,12.06,72882.0,0.29,-0.53,-0.53,0,*77
1494561680.88,1762,12.06,72878.5,0.31,-0.57,-0.53,0,*79
1494561682.05,1763,12.06,72876.8,0.31,-0.57,-0.45,0,*7F
1494561683.22,1764,12.06,72892.5,0.31,-0.57,-0.53,0,*7F
1494561684.4,1765,12.06,72914.0,0.29,-0.61,-0.57,0,*76
1494561685.6,1766,12.06,72870.8,0.29,-0.69,-0.69,0,*70
1494561686.76,1767,12.06,72860.8,0.31,-0.69,-0.65,0,*74
1494561687.93,1768,12.06,72864.0,0.31,-0.69,-0.65,0,*7B
1494561689.13,1769,12.06,72866.0,0.29,-0.81,-0.73,0,*72
1494561690.29,1770,12.06,72874.3,0.31,-0.69,-0.65,0,*72
1494561691.48,1771,12.06,72874.8,0.29,-0.73,-0.61,0,*75
1494561692.67,1772,12.06,72882.0,0.29,-0.61,-0.61,0,*75
1494561693.86,1773,12.06,72874.3,0.29,-0.69,-0.69,0,*74
1494561695.06,1774,12.06,72866.8,0.29,-0.73,-0.73,0,*73
1494561696.25,1775,12.06,72866.8,0.29,-0.69,-0.69,0,*72
1494561697.45,1776,12.06,72866.5,0.29,-0.69,-0.69,0,*71
1494561698.65,1777,12.06,72860.5,0.29,-0.73,-0.69,0,*7B
1494561699.84,1778,12.06,72860.8,0.29,-0.73,-0.61,0,*7C
1494561701.03,1779,12.06,72858.3,0.29,-0.69,-0.61,0,*76
1494561702.21,1780,12.06,72852.3,0.29,-0.61,-0.61,0,*78
1494561703.4,1781,12.06,72852.8,0.29,-0.57,-0.61,0,*7C
1494561704.59,1782,12.06,72856.5,0.29,-0.69,-0.61,0,*72
1494561705.79,1783,12.06,72864.8,0.29,-0.57,-0.49,0,*74
1494561706.99,1784,12.06,72866.8,0.29,-0.57,-0.49,0,*73
1494561708.18,1785,12.13,72864.5,0.29,-0.49,-0.49,0,*7D
1494561709.37,1786,12.06,72866.0,0.29,-0.49,-0.49,0,*7E
1494561710.54,1787,12.06,72868.3,0.27,-0.49,-0.49,0,*71
1494561711.74,1788,12.06,72870.0,0.29,-0.49,-0.49,0,*70
1494561712.93,1789,12.06,72866.3,0.29,-0.49,-0.49,0,*71
1494561714.13,1790,12.06,72868.5,0.29,-0.57,-0.57,0,*79
1494561715.32,1791,12.06,72874.3,0.29,-0.57,-0.49,0,*77
1494561716.52,1792,12.06,72872.8,0.29,-0.57,-0.49,0,*74
1494561717.71,1793,12.06,72870.3,0.29,-0.57,-0.57,0,*7A
1494561718.9,1794,12.06,72880.0,0.29,-0.61,-0.69,0,*75
1494561720.1,1795,12.06,72890.8,0.29,-0.57,-0.49,0,*73
1494561721.29,1796,12.06,72902.5,0.29,-0.49,-0.49,0,*7F
1494561722.49,1797,12.06,72888.5,0.29,-0.57,-0.49,0,*71
1494561723.67,1798,12.06,72866.3,0.29,-0.61,-0.61,0,*71
1494561724.86,1799,12.06,72852.3,0.29,-0.69,-0.61,0,*78
1494561726.06,1800,12.06,72860.5,0.29,-0.57,-0.57,0,*7F
1494561727.25,1801,12.06,72874.8,0.29,-0.61,-0.49,0,*74
1494561728.43,1802,12.06,72874.3,0.29,-0.61,-0.57,0,*78
1494561729.6,1803,12.06,72866.3,0.27,-0.49,-0.49,0,*72
1494561730.78,1804,12.06,72874.0,0.27,-0.49,-0.49,0,*75
1494561731.97,1805,12.06,72886.0,0.29,-0.49,-0.49,0,*7A
1494561733.16,1806,12.06,72900.3,0.29,-0.49,-0.49,0,*79
1494561734.35,1807,12.06,72896.0,0.29,-0.49,-0.45,0,*74
1494561735.51,1808,12.06,72888.0,0.27,-0.61,-0.61,0,*79
1494561736.67,1809,12.06,72878.0,0.27,-0.61,-0.61,0,*78
1494561737.87,1810,12.06,72878.5,0.29,-0.69,-0.49,0,*7C
1494561739.07,1811,12.06,72878.8,0.29,-0.57,-0.49,0,*70
1494561740.27,1812,12.06,72874.3,0.29,-0.57,-0.49,0,*73
1494561741.46,1813,12.06,72878.0,0.29,-0.69,-0.57,0,*70
1494561742.66,1814,12.06,72878.0,0.29,-0.73,-0.69,0,*71
1494561743.85,1815,12.06,72874.8,0.29,-0.69,-0.69,0,*7B
1494561745.04,1816,12.06,72882.5,0.29,-0.69,-0.69,0,*78
1494561746.21,1817,12.06,72882.8,0.27,-0.69,-0.61,0,*7F
1494561747.4,1818,12.06,72882.0,0.29,-0.69,-0.57,0,*7B
1494561748.6,1819,12.06,72876.8,0.29,-0.57,-0.57,0,*77
1494561749.77,1820,12.06,72878.3,0.27,-0.49,-0.49,0,*73
1494561750.94,1821,12.06,72876.5,0.27,-0.57,-0.49,0,*7D
1494561752.11,1822,12.06,72880.3,0.27,-0.57,-0.61,0,*74
1494561753.28,1823,12.06,72880.3,0.27,-0.57,-0.49,0,*7F
1494561754.46,1824,12.13,72874.5,0.27,-0.57,-0.49,0,*78
1494561755.62,1825,12.06,72866.5,0.27,-0.49,-0.57,0,*79
1494561756.79,1826,12.06,72868.3,0.27,-0.57,-0.57,0,*75
1494561757.97,1827,12.06,72870.0,0.27,-0.57,-0.49,0,*7B
1494561759.13,1828,12.06,72878.0,0.27,-0.49,-0.57,0,*74
1494561760.3,1829,12.06,72878.8,0.23,-0.61,-0.57,0,*7B
1494561761.46,1830,12.06,72876.3,0.27,-0.61,-0.57,0,*77
1494561762.63,1831,12.06,72874.3,0.27,-0.69,-0.61,0,*7B
1494561763.8,1832,12.06,72878.0,0.27,-0.57,-0.49,0,*7F
1494561765.0,1833,12.06,72876.5,0.29,-0.57,-0.57,0,*7F
1494561766.18,1834,12.06,72866.3,0.29,-0.61,-0.57,0,*7D
1494561767.38,1835,12.06,72866.0,0.29,-0.69,-0.57,0,*74
1494561768.57,1836,12.06,72876.8,0.29,-0.69,-0.69,0,*7A
1494561769.73,1837,12.06,72870.8,0.27,-0.61,-0.61,0,*75
1494561770.91,1838,12.06,72870.8,0.27,-0.81,-0.73,0,*77
1494561772.12,1839,12.06,72884.8,0.23,-0.89,-0.89,0,*7F
1494561773.3,1840,12.06,72876.5,0.27,-0.81,-0.73,0,*78
1494561774.5,1841,12.06,72868.5,0.27,-0.85,-0.73,0,*7D
1494561775.69,1842,12.06,72872.8,0.27,-0.81,-0.85,0,*73
1494561776.88,1843,12.06,72874.0,0.23,-0.77,-0.85,0,*7F
1494561778.1,1844,12.06,72876.3,0.23,-0.89,-0.85,0,*79
1494561779.27,1845,12.06,72878.8,0.27,-0.73,-0.69,0,*7B
1494561780.45,1846,12.06,72874.8,0.23,-0.77,-0.73,0,*73
1494561781.63,1847,12.06,72878.0,0.23,-0.73,-0.73,0,*76
1494561782.82,1848,12.06,72874.3,0.23,-0.77,-0.85,0,*74
1494561784.01,1849,12.06,72872.3,0.27,-0.93,-0.73,0,*72
1494561785.18,1850,12.06,72884.5,0.23,-0.65,-0.65,0,*70
1494561786.34,1851,12.06,72888.0,0.27,-0.69,-0.61,0,*7D
1494561787.51,1852,12.06,72886.3,0.23,-0.65,-0.61,0,*76
1494561788.68,1853,12.06,72890.3,0.27,-0.69,-0.61,0,*7F
1494561789.85,1854,12.06,72880.8,0.23,-0.73,-0.61,0,*77
1494561791.02,1855,12.06,72880.3,0.23,-0.73,-0.65,0,*72
1494561792.19,1856,12.06,72880.8,0.23,-0.77,-0.73,0,*72
1494561793.36,1857,12.06,72864.5,0.23,-0.77,-0.77,0,*77
1494561794.58,1858,12.06,72868.5,0.21,-0.89,-0.81,0,*72
1494561795.82,1859,12.06,72876.0,0.21,-0.89,-0.89,0,*7B
1494561797.04,1860,12.06,72872.0,0.23,-0.89,-0.85,0,*7F
1494561798.26,1861,12.06,72876.0,0.23,-0.85,-0.85,0,*72
1494561799.45,1862,12.06,72874.8,0.23,-0.85,-0.77,0,*7C
1494561800.63,1863,12.06,72864.8,0.27,-0.73,-0.73,0,*74
1494561801.85,1864,12.06,72868.3,0.23,-0.85,-0.85,0,*77
1494561803.06,1865,12.06,72876.3,0.23,-0.97,-0.85,0,*75
1494561804.28,1866,12.06,72866.0,0.23,-0.97,-0.85,0,*76
1494561805.51,1867,12.06,72858.8,0.23,-1.01,-0.97,0,*4A
1494561806.72,1868,12.06,72864.0,0.23,-0.97,-0.89,0,*74
1494561807.94,1869,12.06,72872.0,0.23,-0.97,-0.89,0,*75
1494561809.14,1870,12.06,72876.0,0.27,-0.93,-0.81,0,*75
1494561810.36,1871,12.06,72884.8,0.21,-1.05,-0.81,0,*4C
1494561811.61,1872,12.06,72874.0,0.21,-1.05,-0.89,0,*47
1494561812.87,1873,12.06,72868.5,0.21,-1.13,-1.05,0,*74
1494561814.06,1874,12.06,72884.5,0.21,-0.81,-0.81,0,*74
1494561815.26,1875,12.06,72902.5,0.21,-0.81,-0.77,0,*7C
1494561816.45,1876,12.06,72904.5,0.21,-0.69,-0.65,0,*7A
1494561817.65,1877,12.06,72906.8,0.21,-0.81,-0.65,0,*7D
1494561818.84,1878,12.06,72912.3,0.21,-0.77,-0.69,0,*77
1494561820.03,1879,12.06,72910.5,0.21,-0.81,-0.65,0,*73
1494561821.2,1880,12.06,72922.3,0.23,-0.77,-0.61,0,*7A
1494561822.37,1881,12.06,72920.5,0.23,-0.65,-0.53,0,*79
1494561823.53,1882,12.06,72906.0,0.23,-0.61,-0.53,0,*7E
1494561824.7,1883,12.06,72890.0,0.23,-0.61,-0.53,0,*7F
1494561825.87,1884,12.06,72904.0,0.27,-0.49,-0.49,0,*7D
1494561827.03,1885,12.06,72920.8,0.23,-0.61,-0.53,0,*79
1494561828.19,1886,12.06,72910.3,0.23,-0.61,-0.53,0,*7A
1494561829.36,1887,12.06,72906.0,0.23,-0.53,-0.53,0,*7A
1494561830.53,1888,12.06,72910.3,0.23,-0.61,-0.53,0,*74
1494561831.7,1889,12.06,72916.0,0.23,-0.53,-0.53,0,*74
1494561832.87,1890,12.06,72926.8,0.27,-0.49,-0.49,0,*78
1494561834.04,1891,12.06,72932.5,0.23,-0.53,-0.53,0,*7D
1494561835.2,1892,12.06,72922.5,0.23,-0.61,-0.53,0,*7F
1494561836.36,1893,12.06,72906.3,0.23,-0.61,-0.61,0,*7F
1494561837.53,1894,12.06,72902.3,0.23,-0.73,-0.65,0,*7F
1494561838.7,1895,12.06,72906.3,0.27,-0.61,-0.57,0,*78
1494561839.87,1896,12.06,72902.3,0.23,-0.73,-0.73,0,*7A
1494561841.05,1897,12.06,72906.5,0.23,-0.77,-0.73,0,*7F
1494561842.21,1898,12.06,72912.0,0.27,-0.61,-0.69,0,*78
1494561843.39,1899,12.06,72910.0,0.27,-0.69,-0.73,0,*7A
1494561844.55,1900,12.06,72902.3,0.27,-0.61,-0.69,0,*78
1494561845.75,1901,12.06,72904.0,0.23,-0.85,-0.73,0,*7C
1494561846.94,1902,12.06,72900.5,0.23,-0.77,-0.85,0,*7B
1494561848.11,1903,12.06,72900.8,0.23,-0.77,-0.77,0,*77
1494561849.29,1904,12.06,72902.8,0.23,-0.77,-0.73,0,*74
1494561850.45,1905,12.06,72898.8,0.23,-0.65,-0.65,0,*71
1494561851.62,1906,12.06,72898.0,0.27,-0.69,-0.69,0,*76
1494561852.79,1907,12.06,72884.8,0.27,-0.69,-0.69,0,*77
1494561853.97,1908,12.06,72884.5,0.27,-0.81,-0.81,0,*78
1494561855.18,1909,12.06,72880.8,0.23,-0.85,-0.85,0,*7D
1494561856.4,1910,12.06,72902.3,0.23,-0.85,-0.85,0,*75
1494561857.57,1911,12.06,72896.3,0.23,-0.77,-0.77,0,*74
1494561858.75,1912,12.06,72900.8,0.23,-0.73,-0.73,0,*77
1494561859.95,1913,12.06,72888.8,0.21,-0.69,-0.77,0,*7B
1494561861.17,1914,12.06,72888.5,0.21,-0.89,-0.77,0,*72
1494561862.36,1915,12.06,72888.3,0.21,-0.81,-0.81,0,*72
1494561863.56,1916,12.06,72894.5,0.21,-0.81,-0.81,0,*71
1494561864.76,1917,12.06,72900.0,0.21,-0.81,-0.81,0,*70
1494561865.95,1918,12.06,72902.5,0.21,-0.77,-0.77,0,*7F
1494561867.15,1919,12.06,72902.5,0.21,-0.69,-0.77,0,*71
1494561868.32,1920,12.06,72900.0,0.19,-0.65,-0.69,0,*73
1494561869.52,1921,12.06,72902.8,0.21,-0.77,-0.77,0,*75
1494561870.72,1922,12.06,72908.0,0.21,-0.81,-0.77,0,*7F
1494561871.91,1923,12.06,72902.3,0.21,-0.81,-0.69,0,*71
1494561873.13,1924,12.06,72902.0,0.21,-0.89,-0.81,0,*78
1494561874.33,1925,12.06,72892.3,0.21,-0.77,-0.69,0,*7E
1494561875.52,1926,12.06,72882.8,0.21,-0.69,-0.65,0,*7E
1494561876.71,1927,12.06,72886.0,0.21,-0.65,-0.57,0,*72
1494561877.9,1928,12.06,72888.5,0.21,-0.57,-0.57,0,*7C
1494561879.1,1929,12.06,72884.3,0.21,-0.57,-0.57,0,*7D
1494561880.29,1930,12.06,72888.3,0.21,-0.65,-0.57,0,*74
1494561881.48,1931,12.06,72874.5,0.21,-0.65,-0.65,0,*74
1494561882.67,1932,12.06,72886.5,0.21,-0.69,-0.65,0,*7B
1494561883.86,1933,12.06,72878.5,0.21,-0.65,-0.65,0,*76
1494561885.06,1934,12.06,72880.3,0.21,-0.69,-0.69,0,*71
1494561886.25,1935,12.06,72868.3,0.19,-0.89,-0.81,0,*73
1494561887.45,1936,12.06,72864.3,0.21,-0.81,-0.81,0,*73
1494561888.64,1937,12.06,72868.5,0.21,-0.77,-0.77,0,*72
1494561889.84,1938,12.06,72872.3,0.21,-0.77,-0.77,0,*7D
1494561891.04,1939,12.06,72886.5,0.21,-0.81,-0.81,0,*7C
1494561892.23,1940,12.06,72872.0,0.21,-0.77,-0.69,0,*7D
1494561893.42,1941,12.06,72876.5,0.21,-0.77,-0.69,0,*7C
1494561894.62,1942,12.06,72876.8,0.21,-0.77,-0.81,0,*79
1494561895.84,1943,12.06,72868.5,0.21,-0.89,-0.81,0,*79
1494561897.05,1944,12.06,72870.3,0.19,-0.89,-0.89,0,*7D
1494561898.23,1945,12.06,72876.5,0.19,-0.81,-0.81,0,*7C
1494561899.4,1946,12.06,72872.8,0.19,-0.81,-0.69,0,*79
1494561900.58,1947,12.06,72868.5,0.19,-0.69,-0.77,0,*71
1494561901.77,1948,12.06,72868.3,0.21,-0.81,-0.81,0,*7A
1494561902.97,1949,12.06,72864.3,0.21,-0.81,-0.81,0,*7B
1494561904.14,1950,12.06,72868.0,0.19,-0.81,-0.81,0,*78
1494561905.36,1951,12.06,72846.5,0.21,-0.81,-0.89,0,*7A
1494561906.6,1952,12.06,72846.0,0.21,-0.89,-0.93,0,*7A
1494561907.81,1953,12.06,72844.8,0.19,-0.93,-0.93,0,*7B
1494561909.03,1954,12.06,72860.8,0.19,-0.89,-0.89,0,*7C
1494561910.27,1955,12.06,72872.0,0.21,-0.89,-0.89,0,*76
1494561911.49,1956,12.06,72864.8,0.21,-0.89,-0.81,0,*7D
1494561912.73,1957,12.06,72868.3,0.21,-0.89,-0.89,0,*74
1494561913.95,1958,12.06,72868.3,0.21,-0.89,-0.81,0,*73
1494561915.12,1959,12.06,72864.0,0.19,-0.81,-0.81,0,*71
1494561916.31,1960,12.06,72858.5,0.19,-0.81,-0.89,0,*73
1494561917.49,1961,12.06,72850.3,0.19,-0.81,-0.77,0,*73
1494561918.71,1962,12.06,72838.8,0.19,-0.89,-0.89,0,*79
1494561919.96,1963,12.06,72840.3,0.21,-1.05,-1.05,0,*73
1494561921.2,1964,12.06,72850.5,0.21,-0.89,-0.89,0,*74
1494561922.42,1965,12.06,72838.8,0.19,-0.93,-0.93,0,*7E
1494561923.61,1966,12.06,72850.8,0.19,-0.81,-0.89,0,*75
1494561924.8,1967,12.06,72846.0,0.19,-0.93,-0.81,0,*7F
1494561926.02,1968,12.06,72810.3,0.19,-0.93,-0.89,0,*78
1494561927.23,1969,12.06,72824.8,0.19,-0.93,-0.89,0,*79
1494561928.44,1970,12.06,72828.5,0.19,-0.93,-0.93,0,*7A
1494561929.66,1971,12.06,72844.0,0.19,-0.93,-1.01,0,*41
1494561930.83,1972,12.06,72852.8,0.19,-0.81,-0.81,0,*78
1494561932.01,1973,12.06,72856.5,0.19,-0.81,-0.77,0,*70
1494561933.18,1974,12.06,72862.0,0.19,-0.77,-0.81,0,*77
1494561934.35,1975,12.06,72856.3,0.19,-0.69,-0.69,0,*7F
1494561935.52,1976,12.06,72856.0,0.19,-0.77,-0.69,0,*73
1494561936.72,1977,12.06,72864.8,0.17,-0.73,-0.73,0,*73
1494561937.92,1978,12.06,72864.3,0.17,-0.73,-0.73,0,*7C
1494561939.11,1979,12.06,72862.5,0.17,-0.81,-0.81,0,*7D
1494561940.31,1980,12.06,72860.3,0.17,-0.73,-0.69,0,*70
1494561941.49,1981,12.06,72862.5,0.17,-0.61,-0.61,0,*7A
1494561942.66,1982,12.06,72856.0,0.19,-0.57,-0.53,0,*73
1494561943.82,1983,12.06,72860.8,0.19,-0.65,-0.65,0,*76
1494561945.0,1984,12.06,72858.0,0.19,-0.77,-0.77,0,*71
1494561946.2,1985,12.06,72856.5,0.21,-0.81,-0.77,0,*72
1494561947.37,1986,12.06,72862.0,0.19,-0.77,-0.69,0,*7C
1494561948.54,1987,12.06,72860.8,0.19,-0.69,-0.77,0,*7D
1494561949.71,1988,12.06,72850.8,0.19,-0.77,-0.69,0,*72
1494561950.88,1989,12.06,72860.0,0.19,-0.69,-0.69,0,*7C
1494561952.05,1990,12.06,72854.0,0.19,-0.65,-0.57,0,*75
1494561953.22,1991,12.06,72868.8,0.19,-0.57,-0.65,0,*74
1494561954.38,1992,12.06,72862.5,0.19,-0.65,-0.65,0,*76
1494561955.56,1993,12.06,72858.8,0.19,-0.69,-0.69,0,*77
1494561956.75,1994,12.06,72852.3,0.21,-0.77,-0.77,0,*7B
1494561957.95,1995,12.06,72846.0,0.21,-0.69,-0.77,0,*75
1494561959.17,1996,12.06,72846.8,0.19,-0.89,-0.89,0,*72
1494561960.34,1997,12.06,72858.8,0.19,-0.81,-0.81,0,*73
1494561961.51,1998,12.06,72862.5,0.19,-0.81,-0.81,0,*7C
1494561962.75,1999,12.06,72872.0,0.21,-0.89,-0.89,0,*76
1494561963.95,2000,12.06,72872.8,0.21,-0.77,-0.81,0,*75
1494561965.12,2001,12.06,72874.8,0.19,-0.77,-0.69,0,*79
1494561966.31,2002,12.06,72878.8,0.21,-0.65,-0.65,0,*7E
1494561967.48,2003,12.06,72882.0,0.19,-0.65,-0.69,0,*78
1494561968.65,2004,12.06,72886.8,0.19,-0.57,-0.57,0,*73
1494561969.82,2005,12.06,72886.0,0.19,-0.57,-0.57,0,*72
1494561970.99,2006,12.06,72890.5,0.19,-0.57,-0.57,0,*71
1494561972.16,2007,12.06,72892.3,0.19,-0.65,-0.57,0,*71
1494561973.33,2008,12.06,72902.5,0.19,-0.65,-0.65,0,*7F
1494561974.52,2009,12.06,72900.8,0.21,-0.65,-0.57,0,*74
1494561975.71,2010,12.06,72898.5,0.21,-0.57,-0.65,0,*7C
1494561976.9,2011,12.06,72900.0,0.21,-0.57,-0.69,0,*71
1494561978.12,2012,12.06,72896.0,0.21,-0.65,-0.89,0,*7D
1494561979.34,2013,12.06,72892.5,0.21,-0.81,-1.01,0,*47
1494561980.53,2014,12.06,72882.0,0.19,-0.81,-0.93,0,*71
1494561981.73,2015,12.06,72884.3,0.21,-0.69,-0.81,0,*7E
1494561982.95,2016,12.06,72904.0,0.21,-0.89,-0.77,0,*7A
1494561984.18,2017,12.06,72906.8,0.21,-1.01,-0.81,0,*43
1494561985.37,2018,12.06,72904.8,0.23,-0.97,-0.77,0,*79
1494561986.57,2019,12.06,72906.0,0.23,-0.89,-0.73,0,*73
1494561987.79,2020,12.06,72902.5,0.23,-0.89,-1.13,0,*4E
1494561988.99,2021,12.06,72882.3,0.23,-0.97,-0.77,0,*73
1494561990.18,2022,12.06,72894.3,0.23,-0.85,-0.65,0,*70
1494561991.36,2023,12.06,72892.5,0.23,-0.65,-0.53,0,*7A
1494561992.53,2024,12.06,72894.3,0.27,-0.49,-0.41,0,*74
1494561993.71,2025,12.06,72892.5,0.27,-0.41,-0.41,0,*7D
1494561994.88,2026,12.06,72890.3,0.23,-0.49,-0.45,0,*76
1494561996.04,2027,12.06,72890.0,0.27,-0.61,-0.61,0,*7F
1494561997.23,2028,12.06,72888.5,0.27,-0.85,-0.81,0,*74
1494561998.43,2029,12.06,72880.3,0.27,-1.29,-1.09,0,*73
1494561999.64,2030,12.06,72878.0,0.27,-1.33,-1.09,0,*70
1494562000.86,2031,12.06,72884.5,0.27,-1.09,-0.93,0,*4A
1494562002.04,2032,12.06,72900.3,0.27,-1.29,-1.17,0,*76
1494562003.27,2033,12.06,72900.5,0.27,-2.07,-1.91,0,*76
1494562004.5,2034,12.06,72874.5,0.27,-2.11,-1.91,0,*76
1494562005.69,2035,12.06,72882.8,0.27,-1.29,-1.21,0,*74
1494562006.91,2036,12.06,72906.8,0.27,-1.09,-0.97,0,*49
1494562008.08,2037,12.06,72878.0,0.27,-0.73,-0.69,0,*75
1494562009.25,2038,12.06,72876.8,0.27,-0.69,-0.57,0,*7C
1494562010.42,2039,12.06,72892.5,0.27,-0.69,-0.69,0,*70
1494562011.59,2040,12.06,72892.3,0.27,-0.81,-0.81,0,*7E
1494562012.81,2041,12.06,72872.3,0.27,-0.93,-0.97,0,*7B
1494562014.04,2042,12.06,72908.5,0.27,-1.05,-1.09,0,*70
1494562015.26,2043,12.06,72868.3,0.23,-1.09,-1.13,0,*72
1494562016.48,2044,12.06,72856.5,0.23,-0.97,-0.89,0,*71
1494562017.65,2045,12.06,72866.8,0.27,-0.73,-0.73,0,*7B
1494562018.83,2046,12.06,72874.0,0.27,-0.73,-0.69,0,*73
1494562020.0,2047,12.06,72860.0,0.27,-0.73,-0.61,0,*7A
1494562021.17,2048,12.06,72874.5,0.27,-0.69,-0.57,0,*7B
1494562022.34,2049,12.06,72868.5,0.27,-0.81,-0.73,0,*7A
1494562023.52,2050,12.06,72874.3,0.27,-0.73,-0.73,0,*7F
1494562024.7,2051,12.06,72862.8,0.27,-0.81,-0.81,0,*7E
1494562025.87,2052,12.06,72856.5,0.27,-0.73,-0.81,0,*70
1494562027.03,2053,12.06,72858.5,0.27,-0.61,-0.61,0,*7C
1494562028.2,2054,12.06,72862.8,0.27,-0.69,-0.69,0,*7B
1494562029.37,2055,12.06,72874.0,0.27,-0.73,-0.69,0,*71
1494562030.55,2056,12.06,72878.0,0.23,-0.65,-0.73,0,*7A
1494562031.72,2057,12.06,72876.0,0.23,-0.73,-0.65,0,*7B
1494562032.9,2058,12.06,72858.5,0.23,-0.73,-0.73,0,*73
1494562034.07,2059,12.06,72878.8,0.23,-0.77,-0.73,0,*76
1494562035.24,2060,12.06,72888.5,0.23,-0.73,-0.65,0,*7F
1494562036.41,2061,12.06,72868.8,0.23,-0.65,-0.65,0,*79
1494562037.58,2062,12.06,72856.5,0.27,-0.69,-0.69,0,*7E
1494562038.78,2063,12.06,72868.3,0.23,-0.85,-0.73,0,*72
1494562039.99,2064,12.06,72854.8,0.23,-0.85,-0.85,0,*7C
1494562041.16,2065,12.06,72868.8,0.23,-0.77,-0.77,0,*7D
1494562042.34,2066,12.06,72874.8,0.23,-0.77,-0.77,0,*7E
1494562043.51,2067,12.06,72866.0,0.23,-0.73,-0.77,0,*7B
1494562044.71,2068,12.06,72864.0,0.23,-0.85,-0.77,0,*7D
1494562045.89,2069,12.06,72858.5,0.23,-0.77,-0.77,0,*71
1494562047.06,2070,12.06,72864.3,0.23,-0.77,-0.77,0,*79
1494562048.24,2071,12.06,72860.5,0.23,-0.73,-0.73,0,*78
1494562049.41,2072,12.06,72856.5,0.23,-0.73,-0.61,0,*78
1494562050.6,2073,12.06,72850.3,0.27,-0.81,-0.85,0,*7A
1494562051.82,2074,12.06,72860.3,0.23,-0.97,-0.97,0,*7D
1494562053.05,2075,12.06,72866.5,0.21,-0.93,-0.89,0,*75
1494562054.27,2076,12.06,72868.5,0.21,-0.89,-0.81,0,*75
1494562055.52,2077,12.06,72854.5,0.21,-1.01,-0.89,0,*4D
1494562056.76,2078,12.06,72870.5,0.21,-0.89,-0.93,0,*78
1494562058.0,2079,12.06,72874.0,0.21,-0.89,-0.89,0,*72
1494562059.22,2080,12.06,72868.8,0.21,-0.89,-0.77,0,*75
1494562060.42,2081,12.06,72866.0,0.21,-0.81,-0.77,0,*7C
1494562061.59,2082,12.06,72860.8,0.23,-0.77,-0.73,0,*70
1494562062.76,2083,12.06,72876.3,0.23,-0.73,-0.65,0,*72
1494562063.93,2084,12.06,72868.3,0.23,-0.65,-0.65,0,*72
1494562065.12,2085,12.06,72876.0,0.21,-0.57,-0.57,0,*71
1494562066.32,2086,12.06,72894.8,0.21,-0.65,-0.57,0,*73
1494562067.49,2087,12.06,72882.5,0.23,-0.53,-0.49,0,*7A
1494562068.66,2088,12.06,72866.5,0.23,-0.49,-0.49,0,*7E
1494562069.83,2089,12.06,72866.3,0.23,-0.49,-0.49,0,*7F
1494562071.0,2090,12.06,72878.8,0.23,-0.49,-0.49,0,*77
1494562072.17,2091,12.06,72860.0,0.27,-0.45,-0.45,0,*72
1494562073.34,2092,12.06,72862.3,0.23,-0.49,-0.49,0,*75
1494562074.52,2093,12.06,72864.5,0.23,-0.45,-0.49,0,*78
1494562075.69,2094,12.06,72874.5,0.27,-0.45,-0.45,0,*77
1494562076.86,2095,12.06,72856.0,0.27,-0.45,-0.41,0,*72
1494562078.03,2096,12.06,72868.5,0.27,-0.45,-0.45,0,*75
1494562079.2,2097,12.06,72868.8,0.23,-0.49,-0.49,0,*70
1494562080.38,2098,12.06,72862.8,0.23,-0.53,-0.49,0,*74
1494562081.55,2099,12.06,72866.3,0.23,-0.61,-0.49,0,*74
1494562082.71,2100,12.06,72876.5,0.23,-0.61,-0.49,0,*75
1494562083.88,2101,12.06,72880.5,0.27,-0.53,-0.53,0,*7A
1494562085.06,2102,12.06,72880.8,0.27,-0.49,-0.41,0,*71
1494562086.25,2103,12.06,72880.3,0.29,-0.49,-0.49,0,*76
1494562087.42,2104,12.06,72878.8,0.27,-0.57,-0.57,0,*7F
1494562088.58,2105,12.06,72872.3,0.27,-0.61,-0.61,0,*7E
1494562089.75,2106,12.06,72868.3,0.27,-0.81,-0.69,0,*7B
1494562090.91,2107,12.06,72868.3,0.27,-0.61,-0.61,0,*7C
1494562092.09,2108,12.06,72866.3,0.23,-0.73,-0.73,0,*77
1494562093.31,2109,12.06,72866.0,0.23,-0.85,-0.85,0,*76
1494562094.52,2110,12.06,72866.8,0.23,-0.89,-0.85,0,*72
1494562095.74,2111,12.06,72884.0,0.23,-0.93,-0.89,0,*74
1494562096.91,2112,12.06,72888.8,0.27,-0.81,-0.81,0,*78
1494562098.13,2113,12.06,72900.5,0.23,-0.89,-0.85,0,*71
1494562099.29,2114,12.06,72904.8,0.23,-0.65,-0.65,0,*7A
1494562100.46,2115,12.06,72904.5,0.27,-0.49,-0.49,0,*7F
1494562101.63,2116,12.06,72910.8,0.23,-0.73,-0.65,0,*7F
1494562102.79,2117,12.06,72894.0,0.27,-0.61,-0.61,0,*7D
1494562103.95,2118,12.06,72904.8,0.23,-0.61,-0.61,0,*76
1494562105.12,2119,12.06,72920.3,0.27,-0.49,-0.49,0,*73
1494562106.29,2120,12.06,72922.3,0.27,-0.49,-0.45,0,*75
1494562107.46,2121,12.06,72926.0,0.23,-0.49,-0.45,0,*70
1494562108.63,2122,12.06,72920.5,0.23,-0.45,-0.37,0,*7A